DateTimeUTC,F1_A11,F1_S11,BsB_S11,BsG_S11,BsR_S11,BbsB_S11,BbsG_S11,BbsR_S11,BaB_A11,BaG_A11,BaR_A11,Tu_S11,T_S11,Uu_S11,U_S11,P_S11,T1_A11
2021-11-28T05:00:00Z,00000200,21000000,,,,,,,-000.18,0000.27,-000.19,18.4,25.6,,00.0,0632.6,30.8
2021-11-28T05:01:00Z,00000200,21000000,,,,,,,-000.26,-000.24,0000.23,18.4,25.6,,00.0,0632.6,30.8
2021-11-28T05:02:00Z,00000200,21000000,,,,,,,0000.12,0000.02,0000.09,18.4,25.6,,00.0,0632.6,30.8
2021-11-28T05:03:00Z,00000200,61000000,,,,,,,0000.32,0000.59,0000.05,18.4,25.6,,00.0,0632.6,30.8
2021-11-28T05:04:00Z,00000200,41000000,0000.36,-000.01,0000.24,0000.32,-000.16,0000.14,0000.17,0000.04,0000.14,18.7,25.5,,00.0,0633.5,30.8
2021-11-28T05:05:00Z,00000200,01000000,0001.33,0000.35,0000.17,0000.59,0000.02,0000.15,-000.26,-000.30,-000.34,18.8,25.5,,00.0,0633.6,30.9
2021-11-28T05:06:00Z,00000200,01000000,0000.72,-000.02,0000.22,0000.03,0000.21,-000.00,0000.21,0000.36,0000.29,18.9,25.5,,00.0,0633.6,30.9
2021-11-28T05:07:00Z,00000200,01000000,0000.95,0000.11,0000.26,0000.48,0000.06,-000.09,0000.36,0000.02,0000.05,18.9,25.5,,00.0,0633.6,30.9
2021-11-28T05:08:00Z,00000200,01000000,0000.57,0000.19,0000.52,0001.28,0000.14,0000.25,-000.01,-000.14,-000.24,18.9,25.5,,00.0,0633.6,30.9
2021-11-28T05:09:00Z,00000200,01000000,-000.29,0000.26,0000.41,-000.25,-000.08,0000.54,0000.07,0000.36,0000.79,19.0,25.5,,00.0,0633.5,30.9
2021-11-28T05:10:00Z,00000200,01000000,0000.51,0000.29,0000.58,0000.46,-000.23,0000.42,0000.23,-000.32,-000.37,19.0,25.5,,00.0,0633.5,30.9
2021-11-28T05:11:00Z,00000200,01000000,0000.61,0000.27,0000.47,0000.20,-000.11,-000.06,0000.24,0000.21,0000.04,19.0,25.5,,00.0,0633.5,30.9
2021-11-28T05:12:00Z,00000200,01000000,0001.34,0000.09,0000.48,0000.64,-000.27,0000.42,-000.40,0000.40,0000.04,18.9,25.5,,00.0,0633.5,30.9
2021-11-28T05:13:00Z,00000200,01000000,0000.29,0000.16,0000.30,0000.51,0000.07,0000.32,0000.42,0000.09,0000.15,18.9,25.5,,00.0,0633.5,30.9
2021-11-28T05:14:00Z,00000200,01000000,0000.16,0000.37,0000.32,0000.44,-000.16,0000.34,-000.11,0000.17,0000.32,18.9,25.5,,00.0,0633.5,30.9
2021-11-28T05:15:00Z,00000200,01000000,-000.55,0000.02,0000.53,0000.43,0000.10,0000.25,0000.52,0000.10,-000.12,19.0,25.5,,00.0,0633.5,30.9
2021-11-28T05:16:00Z,00000200,01000000,0000.88,0000.16,0000.18,0000.61,-000.18,-000.08,0000.32,-000.03,0000.12,19.0,25.5,,00.0,0633.5,30.9
2021-11-28T05:17:00Z,00000200,01000000,0000.47,0000.49,0000.21,0000.55,0000.23,0000.05,0000.17,0000.47,0000.24,19.0,25.6,,00.0,0633.5,30.9
2021-11-28T05:18:00Z,00000200,01000000,-000.06,0000.44,-000.10,0000.16,0000.05,0000.05,0000.14,-000.10,-000.03,19.1,25.6,,00.0,0633.5,30.9
2021-11-28T05:19:00Z,00000200,01000000,0000.99,0000.44,0000.50,0000.13,0000.08,0000.31,-000.06,0000.07,0000.29,19.1,25.6,,00.0,0633.4,30.9
2021-11-28T05:20:00Z,00000200,01000000,0000.05,0000.26,0000.28,0000.69,0000.22,-000.03,0000.80,0000.54,0000.26,19.2,25.6,,00.0,0633.4,30.9
2021-11-28T05:21:00Z,00000200,01000000,0000.58,0000.50,0000.47,0000.29,0000.43,0000.11,-000.35,-000.10,-000.25,19.2,25.6,,00.0,0633.4,30.9
2021-11-28T05:22:00Z,00000200,01000000,0000.13,0000.35,0000.40,-000.03,0000.18,0000.00,0000.15,-000.16,0000.30,19.2,25.7,,00.0,0633.4,30.9
2021-11-28T05:23:00Z,00000200,01000000,0000.89,0000.09,0000.36,0000.67,0000.35,0000.03,0000.12,0000.29,-000.19,19.1,25.6,,00.0,0633.4,30.9
2021-11-28T05:24:00Z,00000200,01000000,0001.15,0000.05,0000.38,0000.85,0000.17,0000.25,-000.18,0000.08,0000.11,19.0,25.6,,00.0,0633.4,30.8
2021-11-28T05:25:00Z,00000200,01000000,-000.07,0000.21,0000.26,-000.44,-000.13,0000.05,0000.20,-000.08,0000.01,18.9,25.5,,00.0,0633.4,30.8
2021-11-28T05:26:00Z,00000200,01000000,0001.05,0000.07,0000.37,-000.02,0000.01,0000.17,0000.30,-000.00,-000.03,18.8,25.5,,00.0,0633.4,30.8
2021-11-28T05:27:00Z,00000200,01000000,0000.11,0000.13,0000.50,0001.06,0000.08,0000.07,0000.20,0000.71,0000.26,18.8,25.4,,00.0,0633.4,30.8
2021-11-28T05:28:00Z,00000200,01000000,0001.44,0000.24,0000.68,0000.58,0000.10,0000.30,0000.11,-000.01,0000.06,18.8,25.4,,00.0,0633.4,30.8
2021-11-28T05:29:00Z,00000200,01000000,0000.10,0000.18,0000.41,0000.35,0000.20,0000.25,0000.04,0000.30,0000.19,18.8,25.4,,00.0,0633.4,30.8
2021-11-28T05:30:00Z,00000200,01000000,0001.06,0000.04,0000.43,-000.04,0000.18,0000.01,0000.31,-000.12,0000.36,18.8,25.4,,00.0,0633.4,30.8
2021-11-28T05:31:00Z,00000200,01000000,0000.25,0000.30,0000.49,0000.53,0000.12,0000.04,0000.27,0000.64,0000.11,18.8,25.4,,00.0,0633.4,30.8
2021-11-28T05:32:00Z,00000200,01000000,0000.03,-000.05,0000.66,0000.40,-000.11,0000.08,0000.13,-000.24,-000.24,18.9,25.5,,00.0,0633.4,30.9
2021-11-28T05:33:00Z,00000200,01000000,0001.12,0000.43,0000.24,0000.75,0000.07,0000.09,0000.23,0000.42,0000.38,18.9,25.5,,00.0,0633.4,30.9
2021-11-28T05:34:00Z,00000200,01000000,0001.10,0000.22,0000.20,0000.40,-000.18,0000.31,0000.02,-000.22,-000.29,19.0,25.5,,00.0,0633.4,30.9
2021-11-28T05:35:00Z,00000200,01000000,0000.23,-000.06,0000.38,-000.22,0000.22,0000.44,0000.22,0000.26,0000.05,19.0,25.5,,00.0,0633.4,30.9
2021-11-28T05:36:00Z,00000200,01000000,0000.75,0000.32,0000.43,0000.39,-000.06,0000.24,-000.10,-000.31,0000.25,19.0,25.5,,00.0,0633.3,30.9
2021-11-28T05:37:00Z,00000200,01000000,0001.17,0000.15,0000.23,0000.09,-000.31,0000.47,-000.01,0000.39,-000.04,19.1,25.5,,00.0,0633.3,30.9
2021-11-28T05:38:00Z,00000200,01000000,0000.54,0000.23,0000.53,0000.20,-000.22,0000.63,0000.07,-000.08,-000.14,19.0,25.5,,00.0,0633.3,30.9
2021-11-28T05:39:00Z,00000200,01000000,0001.03,-000.06,0000.72,0000.12,0000.06,0000.46,0000.27,0000.12,0000.13,18.9,25.5,,00.0,0633.2,30.9
2021-11-28T05:40:00Z,00000200,01000000,0000.01,0000.74,0000.51,0000.25,0000.04,-000.03,0000.10,0000.20,0000.35,18.8,25.5,,00.0,0633.2,30.8
2021-11-28T05:41:00Z,00000200,01000000,0001.25,0000.35,0000.39,0000.61,-000.25,-000.01,0000.23,0000.36,0000.19,18.8,25.4,,00.0,0633.1,30.8
2021-11-28T05:42:00Z,00000200,01000000,0000.47,0000.64,0000.32,0000.18,-000.10,-000.11,0000.50,0000.04,0000.08,18.7,25.3,,00.0,0633.1,30.8
2021-11-28T05:43:00Z,00000200,01000000,-000.02,0000.05,0000.31,0000.92,0000.24,0000.15,0000.33,0000.50,0000.37,18.7,25.3,,00.0,0633.1,30.8
2021-11-28T05:44:00Z,00000200,01000000,0000.25,0000.23,0000.29,-000.02,0000.06,0000.20,0000.22,0000.13,0000.18,18.7,25.3,,00.0,0633.1,30.8
2021-11-28T05:45:00Z,00000200,01000000,0001.07,0000.23,0000.01,0000.26,0000.10,0000.21,0000.05,0000.21,0000.23,18.8,25.3,,00.0,0633.1,30.8
2021-11-28T05:46:00Z,00000200,01000000,0000.20,0000.27,0000.29,0000.31,0000.02,-000.02,0000.07,0000.13,0000.24,18.8,25.4,,00.0,0633.0,30.8
2021-11-28T05:47:00Z,00000200,01000000,0000.50,0000.27,0000.25,0000.54,0000.29,0000.17,0000.28,0000.01,-000.20,18.8,25.4,,00.0,0633.0,30.8
2021-11-28T05:48:00Z,00000200,01000000,0000.61,0000.11,0000.07,0000.42,0000.11,-000.04,0000.17,0000.08,0000.14,18.9,25.4,,00.0,0633.0,30.8
2021-11-28T05:49:00Z,00000200,01000000,0000.28,0000.08,0000.07,0000.32,0000.14,-000.06,0000.40,0000.27,0000.33,18.9,25.4,,00.0,0633.0,30.9
2021-11-28T05:50:00Z,00000200,01000000,0000.78,0000.58,0000.29,0000.14,0000.32,0000.02,-000.28,0000.20,-000.28,18.9,25.4,,00.0,0633.0,30.9
2021-11-28T05:51:00Z,00000200,01000000,0000.42,0000.59,0000.42,-000.10,0000.02,0000.14,0000.27,0000.35,0000.26,19.0,25.4,,00.0,0633.0,30.9
2021-11-28T05:52:00Z,00000200,01000000,0000.24,0000.13,0000.18,0000.37,0000.31,-000.04,0000.18,-000.24,0000.32,19.0,25.4,,00.0,0633.0,30.9
2021-11-28T05:53:00Z,00000200,01000000,0001.41,0000.16,0000.07,0000.13,-000.09,0000.36,-000.07,0000.12,-000.21,19.0,25.5,,00.0,0633.0,30.9
2021-11-28T05:54:00Z,00000200,01000000,0000.64,0000.04,-000.02,0000.71,0000.28,-000.11,0000.09,0000.10,-000.10,19.0,25.5,,00.0,0633.0,30.9
2021-11-28T05:55:00Z,00000200,01000000,0000.30,0000.21,0000.24,-000.24,-000.01,0000.04,0000.23,-000.20,0000.29,18.9,25.5,,00.0,0632.9,30.9
2021-11-28T05:56:00Z,00000200,01000000,0000.80,0000.22,0000.05,0000.27,0000.06,0000.06,0000.21,0000.48,0000.13,18.8,25.4,,00.0,0632.9,30.8
2021-11-28T05:57:00Z,00000200,41000000,,,,,,,0000.09,-000.11,-000.18,18.9,25.4,,00.0,0632.9,30.8
2021-11-28T05:58:00Z,00000200,61000000,,,,,,,-000.07,0000.02,0000.27,18.5,25.5,,00.0,0632.0,30.8
2021-11-28T05:59:00Z,00000200,21000000,,,,,,,-000.27,0000.18,-000.10,18.5,25.6,,00.0,0632.0,30.8
